SWA1540 KFLL-KMDW

Flight info

Callsign SWA1540
Flight time 2h 37m
Altitude 34000
Route HROCK2 KPASA Q118 BRUTS/N0465F360 Q118 THRSR Q79 IIU DROSE FISSK7
Aircraft B738/M-SDE2E3FGHIRWXY/LB1

Departure

Time 2026-05-03 23:50
Airport Fort Lauderdale Hollywood International Airport (KFLL)

Arrival

Time 2026-05-04 02:27
Airport Chicago Midway International Airport (KMDW)
Time Latitude Longitude Altitude Speed Heading
2026-05-03 21:50 26.07307 -80.13749 15 ft 0 kts 257°
2026-05-03 22:16 26.07309 -80.13738 15 ft 4 kts 257°
2026-05-03 22:16 26.07317 -80.13712 15 ft 4 kts 222°
2026-05-03 22:17 26.07338 -80.13706 15 ft 4 kts 172°
2026-05-03 22:17 26.07361 -80.13708 15 ft 4 kts 180°
2026-05-03 22:17 26.07388 -80.13708 16 ft 4 kts 180°
2026-05-03 22:17 26.07409 -80.13707 15 ft 4 kts 178°
2026-05-03 22:18 26.07432 -80.13714 15 ft 4 kts 122°
2026-05-03 22:18 26.07434 -80.13731 16 ft 4 kts 31°
2026-05-03 22:18 26.07417 -80.13735 16 ft 4 kts
2026-05-03 22:18 26.07405 -80.13735 15 ft 1 kts
2026-05-03 22:26 26.07407 -80.13735 15 ft 2 kts
2026-05-03 22:26 26.07445 -80.13740 15 ft 8 kts 335°
2026-05-03 22:26 26.07469 -80.13815 15 ft 13 kts 271°
2026-05-03 22:27 26.07484 -80.13927 15 ft 16 kts 276°
2026-05-03 22:27 26.07485 -80.14054 15 ft 17 kts 271°
2026-05-03 22:27 26.07486 -80.14198 15 ft 20 kts 270°
2026-05-03 22:27 26.07487 -80.14333 15 ft 8 kts 271°
2026-05-03 22:28 26.07487 -80.14362 15 ft 5 kts 270°
2026-05-03 22:28 26.07487 -80.14395 15 ft 0 kts 270°
2026-05-03 22:28 26.07487 -80.14398 15 ft 2 kts 271°
2026-05-03 22:29 26.07487 -80.14412 15 ft 0 kts 271°
2026-05-03 22:40 26.07487 -80.14438 15 ft 8 kts 270°
2026-05-03 22:41 26.07487 -80.14531 15 ft 16 kts 271°
2026-05-03 22:41 26.07489 -80.14687 15 ft 24 kts 270°
2026-05-03 22:41 26.07489 -80.14896 15 ft 30 kts 271°
2026-05-03 22:41 26.07490 -80.15136 15 ft 31 kts 270°
2026-05-03 22:42 26.07490 -80.15349 15 ft 16 kts 270°
2026-05-03 22:42 26.07491 -80.15461 15 ft 14 kts 270°
2026-05-03 22:42 26.07492 -80.15572 15 ft 15 kts 270°
2026-05-03 22:42 26.07492 -80.15698 15 ft 18 kts 270°
2026-05-03 22:43 26.07493 -80.15841 15 ft 14 kts 270°
2026-05-03 22:43 26.07494 -80.15860 15 ft 0 kts 270°
2026-05-03 22:45 26.07494 -80.15861 15 ft 1 kts 271°
2026-05-03 22:45 26.07494 -80.15878 15 ft 4 kts 270°
2026-05-03 22:46 26.07494 -80.15912 15 ft 2 kts 270°
2026-05-03 22:46 26.07494 -80.15913 15 ft 0 kts 270°
2026-05-03 22:51 26.07494 -80.15914 15 ft 1 kts 270°
2026-05-03 22:52 26.07494 -80.15933 15 ft 5 kts 270°
2026-05-03 22:52 26.07494 -80.15989 15 ft 10 kts 270°
2026-05-03 22:52 26.07495 -80.16076 15 ft 10 kts 271°
2026-05-03 22:52 26.07495 -80.16085 15 ft 0 kts 271°
2026-05-03 22:58 26.07495 -80.16086 15 ft 1 kts 271°
2026-05-03 22:58 26.07495 -80.16111 15 ft 6 kts 270°
2026-05-03 22:58 26.07495 -80.16142 15 ft 1 kts 270°
2026-05-03 22:58 26.07495 -80.16148 15 ft 1 kts 271°
2026-05-03 22:59 26.07495 -80.16152 15 ft 0 kts 271°
2026-05-03 23:00 26.07495 -80.16183 15 ft 7 kts 270°
2026-05-03 23:01 26.07495 -80.16220 15 ft 0 kts 270°
2026-05-03 23:01 26.07496 -80.16226 15 ft 3 kts 271°
2026-05-03 23:02 26.07496 -80.16266 15 ft 0 kts 270°
2026-05-03 23:04 26.07496 -80.16267 15 ft 0 kts 270°
2026-05-03 23:04 26.07496 -80.16268 15 ft 0 kts 270°
2026-05-03 23:04 26.07496 -80.16269 15 ft 0 kts 270°
2026-05-03 23:04 26.07496 -80.16271 15 ft 0 kts 271°
2026-05-03 23:05 26.07496 -80.16272 15 ft 0 kts 271°
2026-05-03 23:05 26.07496 -80.16275 15 ft 0 kts 271°
2026-05-03 23:05 26.07496 -80.16277 15 ft 0 kts 272°
2026-05-03 23:05 26.07496 -80.16280 15 ft 0 kts 272°
2026-05-03 23:06 26.07496 -80.16283 15 ft 0 kts 272°
2026-05-03 23:06 26.07496 -80.16286 15 ft 0 kts 273°
2026-05-03 23:06 26.07497 -80.16290 15 ft 0 kts 274°
2026-05-03 23:06 26.07497 -80.16294 15 ft 0 kts 274°
2026-05-03 23:07 26.07497 -80.16297 15 ft 0 kts 273°
2026-05-03 23:07 26.07497 -80.16306 15 ft 3 kts 268°
2026-05-03 23:07 26.07496 -80.16336 15 ft 4 kts 269°
2026-05-03 23:07 26.07496 -80.16354 15 ft 0 kts 268°
2026-05-03 23:08 26.07496 -80.16355 15 ft 0 kts 268°
2026-05-03 23:11 26.07496 -80.16365 15 ft 3 kts 270°
2026-05-03 23:11 26.07496 -80.16400 15 ft 6 kts 271°
2026-05-03 23:12 26.07497 -80.16443 15 ft 6 kts 271°
2026-05-03 23:12 26.07497 -80.16458 15 ft 0 kts 270°
2026-05-03 23:13 26.07497 -80.16462 15 ft 2 kts 270°
2026-05-03 23:14 26.07497 -80.16472 15 ft 2 kts 271°
2026-05-03 23:14 26.07497 -80.16486 15 ft 2 kts 270°
2026-05-03 23:14 26.07497 -80.16500 15 ft 2 kts 271°
2026-05-03 23:14 26.07498 -80.16513 15 ft 2 kts 270°
2026-05-03 23:15 26.07498 -80.16526 15 ft 2 kts 271°
2026-05-03 23:15 26.07498 -80.16538 15 ft 2 kts 270°
2026-05-03 23:15 26.07498 -80.16550 15 ft 1 kts 270°
2026-05-03 23:15 26.07498 -80.16554 15 ft 0 kts 270°
2026-05-03 23:21 26.07498 -80.16555 15 ft 0 kts 270°
2026-05-03 23:21 26.07498 -80.16558 15 ft 0 kts 271°
2026-05-03 23:36 26.07498 -80.16559 15 ft 1 kts 271°
2026-05-03 23:36 26.07498 -80.16576 15 ft 3 kts 270°
2026-05-03 23:36 26.07499 -80.16597 15 ft 3 kts 275°
2026-05-03 23:36 26.07500 -80.16598 15 ft 0 kts 275°
2026-05-03 23:39 26.07500 -80.16599 15 ft 0 kts 275°
2026-05-03 23:39 26.07510 -80.16623 15 ft 8 kts 306°
2026-05-03 23:40 26.07555 -80.16643 15 ft 6 kts 357°
2026-05-03 23:40 26.07557 -80.16643 15 ft 0 kts 358°
2026-05-03 23:42 26.07566 -80.16643 17 ft 3 kts 360°
2026-05-03 23:42 26.07595 -80.16643 16 ft 0 kts 360°
2026-05-03 23:44 26.07603 -80.16643 16 ft 8 kts 359°
2026-05-03 23:44 26.07693 -80.16583 17 ft 24 kts 82°
2026-05-03 23:45 26.07693 -80.16204 19 ft 58 kts 91°
2026-05-03 23:45 26.07669 -80.15952 19 ft 16 kts 141°
2026-05-03 23:45 26.07602 -80.15940 16 ft 7 kts 188°
2026-05-03 23:45 26.07571 -80.15975 17 ft 7 kts 251°
2026-05-03 23:46 26.07569 -80.16031 16 ft 8 kts 269°
2026-05-03 23:46 26.07568 -80.16092 16 ft 9 kts 270°
2026-05-03 23:46 26.07568 -80.16186 16 ft 16 kts 271°
2026-05-03 23:46 26.07569 -80.16335 16 ft 21 kts 269°
2026-05-03 23:47 26.07570 -80.16481 16 ft 13 kts 269°
2026-05-03 23:47 26.07592 -80.16554 16 ft 0 kts 320°
2026-05-03 23:49 26.07632 -80.16561 17 ft 12 kts
2026-05-03 23:49 26.07695 -80.16457 19 ft 34 kts 90°
2026-05-03 23:49 26.07691 -80.15909 18 ft 106 kts 91°
2026-05-03 23:50 26.07689 -80.14848 23 ft 165 kts 89°
2026-05-03 23:50 26.07681 -80.13927 255 ft 182 kts 90°
2026-05-03 23:50 26.07698 -80.12070 1420 ft 182 kts 86°
2026-05-03 23:50 26.07740 -80.10568 1844 ft 209 kts 86°
2026-05-03 23:51 26.08163 -80.08950 2049 ft 231 kts 54°
2026-05-03 23:51 26.09274 -80.07598 2466 ft 247 kts 45°
2026-05-03 23:51 26.10600 -80.06277 2918 ft 263 kts 28°
2026-05-03 23:51 26.12335 -80.05597 3620 ft 267 kts 17°
2026-05-03 23:52 26.14107 -80.04981 4022 ft 266 kts 16°
2026-05-03 23:52 26.15946 -80.04815 4743 ft 270 kts 349°
2026-05-03 23:52 26.17763 -80.05379 5603 ft 272 kts 340°
2026-05-03 23:52 26.19553 -80.06090 6393 ft 275 kts 339°
2026-05-03 23:53 26.21342 -80.06898 7108 ft 281 kts 328°
2026-05-03 23:53 26.22739 -80.08404 7776 ft 283 kts 301°
2026-05-03 23:53 26.23573 -80.10388 8556 ft 284 kts 290°
2026-05-03 23:53 26.24282 -80.12453 9306 ft 287 kts 289°
2026-05-03 23:54 26.25001 -80.14536 10044 ft 290 kts 290°
2026-05-03 23:54 26.25721 -80.16676 10501 ft 304 kts 287°
2026-05-03 23:54 26.26370 -80.19012 10666 ft 326 kts 285°
2026-05-03 23:54 26.27020 -80.21523 10851 ft 347 kts 284°
2026-05-03 23:55 26.27700 -80.24176 11008 ft 365 kts 285°
2026-05-03 23:55 26.28416 -80.26939 11408 ft 374 kts 285°
2026-05-03 23:55 26.29146 -80.29733 12018 ft 376 kts 285°
2026-05-03 23:55 26.29884 -80.32538 12671 ft 378 kts 285°
2026-05-03 23:56 26.30608 -80.35274 13273 ft 380 kts 285°
2026-05-03 23:56 26.31358 -80.38109 13856 ft 382 kts 285°
2026-05-03 23:56 26.32112 -80.40956 14425 ft 385 kts 285°
2026-05-03 23:56 26.32871 -80.43827 14983 ft 388 kts 285°
2026-05-03 23:57 26.33637 -80.46725 15533 ft 390 kts 285°
2026-05-03 23:57 26.34405 -80.49633 16056 ft 393 kts 285°
2026-05-03 23:57 26.35177 -80.52558 16557 ft 395 kts 285°
2026-05-03 23:57 26.35957 -80.55516 17065 ft 398 kts 285°
2026-05-03 23:58 26.36739 -80.58483 17566 ft 400 kts 285°
2026-05-03 23:58 26.37524 -80.61465 18032 ft 402 kts 285°
2026-05-03 23:58 26.38313 -80.64464 18504 ft 404 kts 285°
2026-05-03 23:58 26.39106 -80.67480 18946 ft 407 kts 284°
2026-05-03 23:59 26.39926 -80.70512 19363 ft 410 kts 288°
2026-05-03 23:59 26.41289 -80.73325 19733 ft 418 kts 306°
2026-05-03 23:59 26.43248 -80.75744 20183 ft 421 kts 311°
2026-05-03 23:59 26.45286 -80.78109 20575 ft 424 kts 311°
2026-05-04 00:00 26.47326 -80.80510 20913 ft 427 kts 310°
2026-05-04 00:00 26.49352 -80.82941 21283 ft 430 kts 310°
2026-05-04 00:00 26.51407 -80.85377 21639 ft 433 kts 313°
2026-05-04 00:00 26.53665 -80.87633 21962 ft 437 kts 317°
2026-05-04 00:01 26.56039 -80.89766 22309 ft 440 kts 319°
2026-05-04 00:01 26.58460 -80.91872 22628 ft 442 kts 319°
2026-05-04 00:01 26.60893 -80.93990 22939 ft 444 kts 319°
2026-05-04 00:01 26.63321 -80.96132 23238 ft 446 kts 318°
2026-05-04 00:02 26.65747 -80.98301 23545 ft 448 kts 318°
2026-05-04 00:02 26.68177 -81.00496 23846 ft 449 kts 317°
2026-05-04 00:02 26.70606 -81.02706 24139 ft 451 kts 317°
2026-05-04 00:02 26.73011 -81.04901 24413 ft 453 kts 317°
2026-05-04 00:03 26.75457 -81.07134 24682 ft 455 kts 317°
2026-05-04 00:03 26.77913 -81.09378 24949 ft 456 kts 317°
2026-05-04 00:03 26.80376 -81.11628 25200 ft 458 kts 317°
2026-05-04 00:03 26.82850 -81.13889 25453 ft 460 kts 317°
2026-05-04 00:04 26.85332 -81.16158 25710 ft 461 kts 317°
2026-05-04 00:04 26.87825 -81.18438 25963 ft 463 kts 317°
2026-05-04 00:04 26.90322 -81.20723 26200 ft 464 kts 317°
2026-05-04 00:04 26.92830 -81.23020 26412 ft 466 kts 317°
2026-05-04 00:05 26.95346 -81.25326 26651 ft 468 kts 317°
2026-05-04 00:05 26.97867 -81.27638 26895 ft 469 kts 317°
2026-05-04 00:05 27.00403 -81.29964 27097 ft 470 kts 317°
2026-05-04 00:05 27.02938 -81.32290 27324 ft 472 kts 317°
2026-05-04 00:06 27.05536 -81.34554 27527 ft 476 kts 322°
2026-05-04 00:06 27.08384 -81.36473 27790 ft 479 kts 327°
2026-05-04 00:06 27.11315 -81.38247 28122 ft 478 kts 328°
2026-05-04 00:06 27.14250 -81.39999 28468 ft 476 kts 328°
2026-05-04 00:07 27.17159 -81.41768 28800 ft 475 kts 327°
2026-05-04 00:07 27.20041 -81.43562 29109 ft 474 kts 327°
2026-05-04 00:07 27.22912 -81.45380 29429 ft 473 kts 326°
2026-05-04 00:07 27.25764 -81.47200 29748 ft 472 kts 326°
2026-05-04 00:08 27.28615 -81.49023 30086 ft 470 kts 326°
2026-05-04 00:08 27.31457 -81.50836 30403 ft 470 kts 326°
2026-05-04 00:08 27.34305 -81.52628 30715 ft 470 kts 328°
2026-05-04 00:08 27.37283 -81.54194 31043 ft 472 kts 332°
2026-05-04 00:09 27.40330 -81.55578 31368 ft 473 kts 334°
2026-05-04 00:09 27.43365 -81.56879 31633 ft 474 kts 334°
2026-05-04 00:09 27.46445 -81.58194 31898 ft 473 kts 334°
2026-05-04 00:09 27.49520 -81.59528 32199 ft 472 kts 333°
2026-05-04 00:10 27.52570 -81.60878 32519 ft 471 kts 333°
2026-05-04 00:10 27.55611 -81.62248 32824 ft 470 kts 332°
2026-05-04 00:10 27.58642 -81.63629 33076 ft 470 kts 332°
2026-05-04 00:10 27.61671 -81.65015 33314 ft 470 kts 332°
2026-05-04 00:11 27.64700 -81.66404 33560 ft 470 kts 332°
2026-05-04 00:11 27.66711 -81.67326 33722 ft 470 kts 332°
2026-05-04 00:11 27.69737 -81.68714 33981 ft 469 kts 332°
2026-05-04 00:11 27.72763 -81.70102 34209 ft 469 kts 332°
2026-05-04 00:12 27.75792 -81.71492 34409 ft 470 kts 332°
2026-05-04 00:12 27.78817 -81.72881 34616 ft 470 kts 332°
2026-05-04 00:12 27.81847 -81.74269 34878 ft 469 kts 331°
2026-05-04 00:12 27.84855 -81.75649 35180 ft 466 kts 331°
2026-05-04 00:13 27.87859 -81.77029 35429 ft 465 kts 331°
2026-05-04 00:13 27.90862 -81.78411 35611 ft 466 kts 331°
2026-05-04 00:13 27.93863 -81.79792 35796 ft 466 kts 331°
2026-05-04 00:13 27.96867 -81.81175 36019 ft 465 kts 331°
2026-05-04 00:14 28.02882 -81.83948 36080 ft 467 kts 331°
2026-05-04 00:14 28.08872 -81.86709 36076 ft 463 kts 331°
2026-05-04 00:15 28.14825 -81.89458 36081 ft 460 kts 331°
2026-05-04 00:15 28.20452 -81.92672 36096 ft 446 kts 319°
2026-05-04 00:16 28.25464 -81.96774 36090 ft 444 kts 317°
2026-05-04 00:16 28.30446 -82.00869 36088 ft 446 kts 318°
2026-05-04 00:17 28.35532 -82.04933 36086 ft 448 kts 318°
2026-05-04 00:17 28.40665 -82.08997 36089 ft 451 kts 318°
2026-05-04 00:18 28.45821 -82.13086 36088 ft 453 kts 319°
2026-05-04 00:18 28.50990 -82.17199 36085 ft 455 kts 318°
2026-05-04 00:19 28.56187 -82.21334 36084 ft 456 kts 318°
2026-05-04 00:19 28.61383 -82.25474 36082 ft 456 kts 318°
2026-05-04 00:20 28.66572 -82.29616 36081 ft 455 kts 318°
2026-05-04 00:20 28.71754 -82.33757 36086 ft 454 kts 318°
2026-05-04 00:21 28.76921 -82.37892 36092 ft 453 kts 318°
2026-05-04 00:21 28.82071 -82.42019 36090 ft 452 kts 318°
2026-05-04 00:22 28.87178 -82.46116 36092 ft 450 kts 318°
2026-05-04 00:22 28.92297 -82.50230 36081 ft 450 kts 318°
2026-05-04 00:23 28.97419 -82.54349 36087 ft 449 kts 318°
2026-05-04 00:23 29.02528 -82.58457 36085 ft 449 kts 318°
2026-05-04 00:24 29.07628 -82.62571 36081 ft 448 kts 318°
2026-05-04 00:24 29.12720 -82.66683 36084 ft 448 kts 318°
2026-05-04 00:25 29.17808 -82.70796 36084 ft 447 kts 318°
2026-05-04 00:25 29.22859 -82.74883 36087 ft 447 kts 318°
2026-05-04 00:26 29.27942 -82.79002 36093 ft 448 kts 318°
2026-05-04 00:26 29.33026 -82.83126 36092 ft 448 kts 318°
2026-05-04 00:27 29.38113 -82.87259 36093 ft 448 kts 318°
2026-05-04 00:27 29.43195 -82.91392 36093 ft 448 kts 318°
2026-05-04 00:28 29.48285 -82.95537 36092 ft 449 kts 318°
2026-05-04 00:28 29.53614 -82.99348 36078 ft 459 kts 330°
2026-05-04 00:29 29.59546 -83.02151 36081 ft 462 kts 332°
2026-05-04 00:29 29.65507 -83.04899 36084 ft 462 kts 331°
2026-05-04 00:30 29.71455 -83.07701 36081 ft 462 kts 331°
2026-05-04 00:30 29.77392 -83.10533 36084 ft 462 kts 331°
2026-05-04 00:31 29.83289 -83.13356 36083 ft 462 kts 331°
2026-05-04 00:31 29.89219 -83.16198 36090 ft 461 kts 331°
2026-05-04 00:32 29.95139 -83.19038 36092 ft 460 kts 330°
2026-05-04 00:32 30.01051 -83.21876 36097 ft 460 kts 331°
2026-05-04 00:33 30.09897 -83.26132 36102 ft 459 kts 331°
2026-05-04 00:34 30.15787 -83.28971 36101 ft 458 kts 331°
2026-05-04 00:34 30.21632 -83.31791 36101 ft 458 kts 331°
2026-05-04 00:35 30.27515 -83.34631 36103 ft 458 kts 331°
2026-05-04 00:35 30.33391 -83.37468 36104 ft 458 kts 331°
2026-05-04 00:36 30.39271 -83.40311 36112 ft 458 kts 331°
2026-05-04 00:36 30.45141 -83.43156 36111 ft 458 kts 331°
2026-05-04 00:37 30.51015 -83.46004 36112 ft 458 kts 331°
2026-05-04 00:37 30.56904 -83.48864 36113 ft 459 kts 331°
2026-05-04 00:38 30.62793 -83.51728 36112 ft 459 kts 331°
2026-05-04 00:38 30.68690 -83.54599 36107 ft 459 kts 331°
2026-05-04 00:39 30.74579 -83.57470 36117 ft 459 kts 331°
2026-05-04 00:39 30.80471 -83.60348 36118 ft 459 kts 331°
2026-05-04 00:40 30.86335 -83.63215 36107 ft 460 kts 331°
2026-05-04 00:40 30.92237 -83.66104 36119 ft 460 kts 331°
2026-05-04 00:41 30.98145 -83.69000 36120 ft 460 kts 331°
2026-05-04 00:41 31.04043 -83.71896 36118 ft 461 kts 331°
2026-05-04 00:42 31.09955 -83.74802 36112 ft 461 kts 331°
2026-05-04 00:42 31.15867 -83.77711 36107 ft 461 kts 331°
2026-05-04 00:43 31.21769 -83.80621 36116 ft 461 kts 331°
2026-05-04 00:43 31.27675 -83.83536 36111 ft 460 kts 331°
2026-05-04 00:44 31.33571 -83.86450 36119 ft 459 kts 332°
2026-05-04 00:44 31.39450 -83.89360 36119 ft 459 kts 332°
2026-05-04 00:45 31.45293 -83.92254 36117 ft 458 kts 332°
2026-05-04 00:45 31.51160 -83.95158 36119 ft 459 kts 333°
2026-05-04 00:46 31.57401 -83.97036 36128 ft 466 kts 344°
2026-05-04 00:46 31.63800 -83.98378 36115 ft 467 kts 345°
2026-05-04 00:47 31.70196 -83.99727 36117 ft 467 kts 345°
2026-05-04 00:47 31.76577 -84.01123 36119 ft 466 kts 344°
2026-05-04 00:48 31.82956 -84.02543 36112 ft 467 kts 344°
2026-05-04 00:48 31.89338 -84.03971 36108 ft 467 kts 344°
2026-05-04 00:49 31.95722 -84.05398 36102 ft 467 kts 344°
2026-05-04 00:49 32.02114 -84.06832 36094 ft 468 kts 344°
2026-05-04 00:50 32.08516 -84.08266 36091 ft 468 kts 344°
2026-05-04 00:50 32.14876 -84.09693 36080 ft 468 kts 344°
2026-05-04 00:51 32.21277 -84.11130 36082 ft 468 kts 344°
2026-05-04 00:51 32.27670 -84.12568 36096 ft 467 kts 344°
2026-05-04 00:52 32.34057 -84.14008 36089 ft 467 kts 344°
2026-05-04 00:52 32.40447 -84.15449 36101 ft 467 kts 344°
2026-05-04 00:53 32.46829 -84.16893 36111 ft 466 kts 344°
2026-05-04 00:53 32.53203 -84.18335 36110 ft 466 kts 344°
2026-05-04 00:54 32.59574 -84.19779 36110 ft 466 kts 345°
2026-05-04 00:54 32.65937 -84.21225 36119 ft 465 kts 345°
2026-05-04 00:55 32.72294 -84.22670 36119 ft 465 kts 345°
2026-05-04 00:55 32.78643 -84.24117 36130 ft 464 kts 345°
2026-05-04 00:56 32.83918 -84.25320 36126 ft 464 kts 345°
2026-05-04 00:56 32.91281 -84.27001 36126 ft 464 kts 345°
2026-05-04 00:57 32.97614 -84.28449 36129 ft 463 kts 345°
2026-05-04 00:57 33.02923 -84.29663 36128 ft 463 kts 345°
2026-05-04 00:58 33.09217 -84.31108 36131 ft 464 kts 345°
2026-05-04 00:58 33.15549 -84.32563 36127 ft 463 kts 345°
2026-05-04 00:59 33.21880 -84.34017 36128 ft 463 kts 345°
2026-05-04 00:59 33.28203 -84.35472 36121 ft 462 kts 345°
2026-05-04 01:00 33.34517 -84.36929 36129 ft 462 kts 345°
2026-05-04 01:00 33.40817 -84.38385 36145 ft 461 kts 345°
2026-05-04 01:01 33.47108 -84.39841 36144 ft 461 kts 345°
2026-05-04 01:01 33.53404 -84.41299 36135 ft 461 kts 345°
2026-05-04 01:02 33.59702 -84.42761 36125 ft 461 kts 345°
2026-05-04 01:02 33.65996 -84.44205 36123 ft 461 kts 346°
2026-05-04 01:03 33.72269 -84.45577 36121 ft 461 kts 346°
2026-05-04 01:03 33.78584 -84.46953 36116 ft 461 kts 346°
2026-05-04 01:04 33.84903 -84.48341 36110 ft 461 kts 346°
2026-05-04 01:04 33.91206 -84.49733 36111 ft 461 kts 346°
2026-05-04 01:05 33.97519 -84.51129 36102 ft 461 kts 346°
2026-05-04 01:05 34.03823 -84.52530 36113 ft 460 kts 345°
2026-05-04 01:06 34.10084 -84.54113 36119 ft 459 kts 344°
2026-05-04 01:06 34.16320 -84.55770 36123 ft 459 kts 344°
2026-05-04 01:07 34.22559 -84.57412 36119 ft 459 kts 344°
2026-05-04 01:07 34.28800 -84.59040 36117 ft 458 kts 344°
2026-05-04 01:08 34.35036 -84.60662 36121 ft 458 kts 344°
2026-05-04 01:08 34.41261 -84.62286 36121 ft 457 kts 344°
2026-05-04 01:09 34.47474 -84.63909 36119 ft 457 kts 344°
2026-05-04 01:09 34.53684 -84.65535 36119 ft 456 kts 344°
2026-05-04 01:10 34.59877 -84.67148 36118 ft 455 kts 345°
2026-05-04 01:10 34.66042 -84.68676 36117 ft 454 kts 345°
2026-05-04 01:11 34.72237 -84.70197 36122 ft 454 kts 345°
2026-05-04 01:11 34.78424 -84.71725 36120 ft 453 kts 345°
2026-05-04 01:12 34.84600 -84.73262 36115 ft 453 kts 345°
2026-05-04 01:12 34.90777 -84.74802 36112 ft 453 kts 345°
2026-05-04 01:13 34.96953 -84.76343 36109 ft 453 kts 345°
2026-05-04 01:13 35.03126 -84.77887 36099 ft 452 kts 345°
2026-05-04 01:14 35.09294 -84.79430 36091 ft 452 kts 345°
2026-05-04 01:14 35.15458 -84.80976 36078 ft 452 kts 345°
2026-05-04 01:15 35.21616 -84.82522 36072 ft 451 kts 345°
2026-05-04 01:15 35.27759 -84.84067 36074 ft 451 kts 345°
2026-05-04 01:16 35.33893 -84.85611 36073 ft 450 kts 345°
2026-05-04 01:16 35.40021 -84.87158 36084 ft 449 kts 345°
2026-05-04 01:17 35.46145 -84.88705 36078 ft 449 kts 345°
2026-05-04 01:17 35.52231 -84.90246 36070 ft 449 kts 345°
2026-05-04 01:18 35.58354 -84.91799 36077 ft 449 kts 345°
2026-05-04 01:18 35.64480 -84.93351 36071 ft 449 kts 345°
2026-05-04 01:19 35.70563 -84.94895 36081 ft 448 kts 345°
2026-05-04 01:19 35.76698 -84.96451 36088 ft 448 kts 345°
2026-05-04 01:20 35.82795 -84.98002 36096 ft 448 kts 345°
2026-05-04 01:20 35.88900 -84.99558 36092 ft 448 kts 345°
2026-05-04 01:21 35.95004 -85.01116 36101 ft 448 kts 345°
2026-05-04 01:21 36.01109 -85.02678 36100 ft 448 kts 345°
2026-05-04 01:22 36.07210 -85.04240 36106 ft 448 kts 345°
2026-05-04 01:22 36.13305 -85.05803 36093 ft 447 kts 345°
2026-05-04 01:23 36.19402 -85.07370 36089 ft 447 kts 345°
2026-05-04 01:23 36.25499 -85.08937 36080 ft 446 kts 345°
2026-05-04 01:24 36.31545 -85.10496 36077 ft 446 kts 345°
2026-05-04 01:24 36.37624 -85.12064 36071 ft 446 kts 345°
2026-05-04 01:25 36.43695 -85.13633 36065 ft 445 kts 345°
2026-05-04 01:25 36.49761 -85.15205 36063 ft 445 kts 345°
2026-05-04 01:26 36.55818 -85.16777 36071 ft 444 kts 345°
2026-05-04 01:26 36.61864 -85.18347 36061 ft 444 kts 345°
2026-05-04 01:27 36.67912 -85.19921 36065 ft 444 kts 345°
2026-05-04 01:27 36.73958 -85.21496 36065 ft 444 kts 345°
2026-05-04 01:28 36.79968 -85.23065 36060 ft 443 kts 344°
2026-05-04 01:28 36.86041 -85.24653 36065 ft 443 kts 344°
2026-05-04 01:29 36.92039 -85.26222 36070 ft 443 kts 344°
2026-05-04 01:29 36.98076 -85.27808 36079 ft 443 kts 344°
2026-05-04 01:30 37.04114 -85.29396 36072 ft 444 kts 344°
2026-05-04 01:30 37.10168 -85.30988 36072 ft 444 kts 344°
2026-05-04 01:31 37.16217 -85.32582 36074 ft 444 kts 344°
2026-05-04 01:31 37.22263 -85.34178 36077 ft 444 kts 344°
2026-05-04 01:32 37.28300 -85.35776 36084 ft 443 kts 344°
2026-05-04 01:32 37.34337 -85.37376 36088 ft 443 kts 344°
2026-05-04 01:33 37.40364 -85.38975 36093 ft 443 kts 344°
2026-05-04 01:33 37.46393 -85.40577 36087 ft 443 kts 344°
2026-05-04 01:34 37.52419 -85.42182 36074 ft 442 kts 344°
2026-05-04 01:34 37.58440 -85.43788 36066 ft 442 kts 344°
2026-05-04 01:35 37.64470 -85.45398 36056 ft 443 kts 344°
2026-05-04 01:35 37.70460 -85.47001 36036 ft 443 kts 344°
2026-05-04 01:36 37.76477 -85.48614 36026 ft 442 kts 344°
2026-05-04 01:36 37.82489 -85.50227 36018 ft 441 kts 344°
2026-05-04 01:37 37.88489 -85.51837 36018 ft 440 kts 344°
2026-05-04 01:37 37.94473 -85.53452 36018 ft 440 kts 344°
2026-05-04 01:38 38.00450 -85.55066 36018 ft 439 kts 344°
2026-05-04 01:38 38.06430 -85.56682 36022 ft 439 kts 344°
2026-05-04 01:39 38.12422 -85.58230 36020 ft 440 kts 346°
2026-05-04 01:39 38.18499 -85.59414 36019 ft 441 kts 348°
2026-05-04 01:40 38.24542 -85.60508 36020 ft 441 kts 347°
2026-05-04 01:40 38.30621 -85.61641 36016 ft 441 kts 347°
2026-05-04 01:41 38.36691 -85.62802 36019 ft 441 kts 347°
2026-05-04 01:41 38.42763 -85.63975 36017 ft 441 kts 347°
2026-05-04 01:42 38.48832 -85.65149 36017 ft 441 kts 347°
2026-05-04 01:42 38.54897 -85.66325 36021 ft 441 kts 347°
2026-05-04 01:43 38.59947 -85.67306 36017 ft 441 kts 347°
2026-05-04 01:43 38.66011 -85.68485 36026 ft 441 kts 347°
2026-05-04 01:44 38.72082 -85.69666 36031 ft 441 kts 347°
2026-05-04 01:44 38.78159 -85.70852 36026 ft 442 kts 347°
2026-05-04 01:45 38.84240 -85.72039 36024 ft 442 kts 347°
2026-05-04 01:45 38.93373 -85.73826 36015 ft 443 kts 347°
2026-05-04 01:46 38.99468 -85.75021 36001 ft 443 kts 347°
2026-05-04 01:46 39.05531 -85.76224 35973 ft 444 kts 347°
2026-05-04 01:47 39.11618 -85.77401 35976 ft 442 kts 347°
2026-05-04 01:47 39.17692 -85.78590 35972 ft 442 kts 347°
2026-05-04 01:48 39.23774 -85.79810 35970 ft 441 kts 347°
2026-05-04 01:48 39.29854 -85.81016 35966 ft 441 kts 347°
2026-05-04 01:49 39.35927 -85.82218 35963 ft 442 kts 347°
2026-05-04 01:49 39.42012 -85.83426 35962 ft 442 kts 347°
2026-05-04 01:50 39.48093 -85.84633 35966 ft 442 kts 347°
2026-05-04 01:50 39.54134 -85.85837 35953 ft 442 kts 347°
2026-05-04 01:51 39.60213 -85.87052 35954 ft 442 kts 347°
2026-05-04 01:51 39.66288 -85.88267 35953 ft 441 kts 347°
2026-05-04 01:52 39.72354 -85.89482 35953 ft 441 kts 347°
2026-05-04 01:52 39.78392 -85.90782 35968 ft 439 kts 347°
2026-05-04 01:53 39.84469 -85.91939 35931 ft 441 kts 349°
2026-05-04 01:53 39.90496 -85.93071 35954 ft 435 kts 349°
2026-05-04 01:54 39.96516 -85.94206 35536 ft 443 kts 347°
2026-05-04 01:54 39.99565 -85.94873 34979 ft 443 kts 347°
2026-05-04 01:54 40.02607 -85.95532 34339 ft 443 kts 347°
2026-05-04 01:55 40.05646 -85.96175 33695 ft 442 kts 347°
2026-05-04 01:55 40.08684 -85.96806 33020 ft 442 kts 347°
2026-05-04 01:55 40.11688 -85.97420 32332 ft 442 kts 347°
2026-05-04 01:55 40.14766 -85.98045 31617 ft 443 kts 347°
2026-05-04 01:56 40.17817 -85.98664 30880 ft 443 kts 347°
2026-05-04 01:56 40.20833 -85.99276 30145 ft 444 kts 347°
2026-05-04 01:56 40.23880 -85.99895 29512 ft 442 kts 347°
2026-05-04 01:56 40.26902 -86.00508 28973 ft 436 kts 347°
2026-05-04 01:57 40.29886 -86.01114 28424 ft 432 kts 347°
2026-05-04 01:57 40.32843 -86.01717 27884 ft 428 kts 347°
2026-05-04 01:57 40.35771 -86.02315 27349 ft 424 kts 347°
2026-05-04 01:57 40.38671 -86.02908 26821 ft 419 kts 347°
2026-05-04 01:58 40.41543 -86.03496 26295 ft 415 kts 347°
2026-05-04 01:58 40.44387 -86.04079 25773 ft 411 kts 347°
2026-05-04 01:58 40.47203 -86.04657 25256 ft 408 kts 347°
2026-05-04 01:58 40.49998 -86.05231 24740 ft 405 kts 347°
2026-05-04 01:59 40.52774 -86.05787 24219 ft 403 kts 348°
2026-05-04 01:59 40.55544 -86.05973 23736 ft 403 kts 356°
2026-05-04 01:59 40.58356 -86.05860 23240 ft 406 kts 358°
2026-05-04 01:59 40.60870 -86.05706 22781 ft 406 kts 358°
2026-05-04 02:00 40.63487 -86.05574 22295 ft 403 kts 358°
2026-05-04 02:00 40.66278 -86.05483 21774 ft 399 kts 357°
2026-05-04 02:00 40.69048 -86.05417 21259 ft 396 kts 357°
2026-05-04 02:00 40.71793 -86.05360 20702 ft 394 kts 357°
2026-05-04 02:01 40.74523 -86.05300 20175 ft 391 kts 357°
2026-05-04 02:01 40.77238 -86.05238 19647 ft 389 kts 358°
2026-05-04 02:01 40.79932 -86.05176 19152 ft 385 kts 358°
2026-05-04 02:01 40.82606 -86.05115 18660 ft 382 kts 358°
2026-05-04 02:02 40.85246 -86.05054 18330 ft 375 kts 358°
2026-05-04 02:02 40.87841 -86.04994 17901 ft 373 kts 358°
2026-05-04 02:02 40.90432 -86.04936 17439 ft 371 kts 358°
2026-05-04 02:02 40.92957 -86.05382 16935 ft 366 kts 338°
2026-05-04 02:03 40.95153 -86.07005 16498 ft 362 kts 319°
2026-05-04 02:03 40.96864 -86.09432 15980 ft 361 kts 304°
2026-05-04 02:03 40.97956 -86.12380 15497 ft 357 kts 289°
2026-05-04 02:03 40.98684 -86.15456 15029 ft 353 kts 287°
2026-05-04 02:04 40.99368 -86.18571 14558 ft 351 kts 286°
2026-05-04 02:04 41.00043 -86.21663 14089 ft 349 kts 286°
2026-05-04 02:04 41.00721 -86.24737 13630 ft 346 kts 286°
2026-05-04 02:04 41.01403 -86.27784 13171 ft 344 kts 287°
2026-05-04 02:05 41.02086 -86.30804 12713 ft 341 kts 287°
2026-05-04 02:05 41.02767 -86.33801 12268 ft 339 kts 287°
2026-05-04 02:05 41.03443 -86.36777 11811 ft 336 kts 287°
2026-05-04 02:05 41.04113 -86.39733 11347 ft 333 kts 286°
2026-05-04 02:06 41.04775 -86.42641 11143 ft 326 kts 287°
2026-05-04 02:06 41.05630 -86.45395 10966 ft 322 kts 296°
2026-05-04 02:06 41.06702 -86.47964 10806 ft 313 kts 298°
2026-05-04 02:06 41.07772 -86.50427 10647 ft 304 kts 298°
2026-05-04 02:07 41.08798 -86.52830 10500 ft 295 kts 298°
2026-05-04 02:07 41.09774 -86.55173 10363 ft 286 kts 297°
2026-05-04 02:07 41.10717 -86.57470 10219 ft 279 kts 297°
2026-05-04 02:07 41.11615 -86.59669 10088 ft 271 kts 296°
2026-05-04 02:08 41.12536 -86.61812 9954 ft 265 kts 304°
2026-05-04 02:08 41.13827 -86.63524 9840 ft 263 kts 317°
2026-05-04 02:08 41.15217 -86.65077 9716 ft 259 kts 316°
2026-05-04 02:08 41.16600 -86.66638 9596 ft 264 kts 316°
2026-05-04 02:09 41.18008 -86.68239 9495 ft 269 kts 316°
2026-05-04 02:09 41.19433 -86.69858 9362 ft 269 kts 316°
2026-05-04 02:09 41.20852 -86.71468 9211 ft 268 kts 316°
2026-05-04 02:09 41.22263 -86.73062 9083 ft 266 kts 316°
2026-05-04 02:10 41.23670 -86.74665 8960 ft 266 kts 316°
2026-05-04 02:10 41.25068 -86.76264 8819 ft 265 kts 316°
2026-05-04 02:10 41.26462 -86.77861 8702 ft 265 kts 316°
2026-05-04 02:10 41.27857 -86.79463 8562 ft 265 kts 315°
2026-05-04 02:11 41.29251 -86.81062 8449 ft 264 kts 315°
2026-05-04 02:11 41.30640 -86.82659 8325 ft 264 kts 315°
2026-05-04 02:11 41.32029 -86.84255 8197 ft 264 kts 315°
2026-05-04 02:11 41.33415 -86.85850 8077 ft 263 kts 315°
2026-05-04 02:12 41.34800 -86.87445 7948 ft 264 kts 315°
2026-05-04 02:12 41.36192 -86.89048 7822 ft 264 kts 315°
2026-05-04 02:12 41.37578 -86.90648 7692 ft 264 kts 315°
2026-05-04 02:12 41.38966 -86.92250 7562 ft 264 kts 315°
2026-05-04 02:13 41.40345 -86.93853 7435 ft 263 kts 314°
2026-05-04 02:13 41.41703 -86.95498 7310 ft 263 kts 314°
2026-05-04 02:13 41.43042 -86.97136 7186 ft 265 kts 314°
2026-05-04 02:13 41.44402 -86.98797 7061 ft 265 kts 314°
2026-05-04 02:14 41.45724 -87.00474 6926 ft 260 kts 306°
2026-05-04 02:14 41.46615 -87.02501 6810 ft 250 kts 292°
2026-05-04 02:14 41.47369 -87.04597 6694 ft 251 kts 293°
2026-05-04 02:14 41.48149 -87.06699 6575 ft 253 kts 293°
2026-05-04 02:15 41.48937 -87.08805 6457 ft 254 kts 293°
2026-05-04 02:15 41.49730 -87.10914 6335 ft 255 kts 293°
2026-05-04 02:15 41.50530 -87.13030 6210 ft 255 kts 294°
2026-05-04 02:15 41.51398 -87.15095 6064 ft 258 kts 306°
2026-05-04 02:16 41.52840 -87.16547 5947 ft 264 kts 330°
2026-05-04 02:16 41.54536 -87.17491 5830 ft 265 kts 335°
2026-05-04 02:16 41.56270 -87.18327 5685 ft 265 kts 336°
2026-05-04 02:16 41.58008 -87.19154 5559 ft 265 kts 336°
2026-05-04 02:17 41.59742 -87.19988 5419 ft 265 kts 336°
2026-05-04 02:17 41.61469 -87.20830 5304 ft 264 kts 336°
2026-05-04 02:17 41.63192 -87.21680 5165 ft 263 kts 336°
2026-05-04 02:17 41.64904 -87.22536 5025 ft 263 kts 336°
2026-05-04 02:18 41.66596 -87.23382 4893 ft 262 kts 336°
2026-05-04 02:18 41.68328 -87.24250 4773 ft 261 kts 336°
2026-05-04 02:18 41.70033 -87.25102 4630 ft 262 kts 336°
2026-05-04 02:18 41.71742 -87.25961 4509 ft 263 kts 336°
2026-05-04 02:19 41.73452 -87.26821 4376 ft 261 kts 335°
2026-05-04 02:19 41.75132 -87.27673 4251 ft 262 kts 336°
2026-05-04 02:19 41.76799 -87.28618 4124 ft 260 kts 332°
2026-05-04 02:19 41.78433 -87.29643 3987 ft 260 kts 331°
2026-05-04 02:20 41.80074 -87.30675 3874 ft 261 kts 332°
2026-05-04 02:20 41.81711 -87.31705 3752 ft 261 kts 332°
2026-05-04 02:20 41.83351 -87.32747 3614 ft 260 kts 327°
2026-05-04 02:20 41.84587 -87.34407 3470 ft 249 kts 293°
2026-05-04 02:21 41.85057 -87.36602 3376 ft 244 kts 272°
2026-05-04 02:21 41.85101 -87.38870 3266 ft 245 kts 266°
2026-05-04 02:21 41.85074 -87.41158 3143 ft 245 kts 266°
2026-05-04 02:21 41.85055 -87.43435 3041 ft 243 kts 266°
2026-05-04 02:22 41.85036 -87.45704 3003 ft 242 kts 267°
2026-05-04 02:22 41.85028 -87.47918 3011 ft 230 kts 267°
2026-05-04 02:22 41.85025 -87.49972 2997 ft 211 kts 267°
2026-05-04 02:22 41.85023 -87.51857 2983 ft 193 kts 266°
2026-05-04 02:23 41.85022 -87.53637 2993 ft 190 kts 266°
2026-05-04 02:23 41.85003 -87.55410 2990 ft 190 kts 264°
2026-05-04 02:23 41.84926 -87.57183 2999 ft 190 kts 263°
2026-05-04 02:23 41.84847 -87.58917 3003 ft 182 kts 263°
2026-05-04 02:24 41.84772 -87.60557 2987 ft 176 kts 263°
2026-05-04 02:24 41.84688 -87.62245 2758 ft 178 kts 263°
2026-05-04 02:24 41.84609 -87.63823 2511 ft 167 kts 263°
2026-05-04 02:24 41.84409 -87.65302 2342 ft 160 kts 247°
2026-05-04 02:25 41.83998 -87.66624 2170 ft 147 kts 244°
2026-05-04 02:25 41.83595 -87.67851 1942 ft 140 kts 243°
2026-05-04 02:25 41.83121 -87.68981 1712 ft 140 kts 236°
2026-05-04 02:25 41.82534 -87.70034 1561 ft 141 kts 226°
2026-05-04 02:26 41.81830 -87.70938 1440 ft 140 kts 222°
2026-05-04 02:26 41.81116 -87.71849 1234 ft 143 kts 223°
2026-05-04 02:26 41.80404 -87.72766 1029 ft 141 kts 222°
2026-05-04 02:26 41.79689 -87.73677 830 ft 141 kts 223°
2026-05-04 02:27 41.78976 -87.74587 642 ft 140 kts 223°
2026-05-04 02:27 41.78356 -87.75375 632 ft 96 kts 223°
2026-05-04 02:27 41.78072 -87.75737 634 ft 27 kts 223°
2026-05-04 02:27 41.77961 -87.75865 634 ft 13 kts 199°
2026-05-04 02:28 41.77914 -87.75816 630 ft 7 kts 93°
2026-05-04 02:28 41.77917 -87.75752 631 ft 7 kts 77°
2026-05-04 02:28 41.77942 -87.75698 628 ft 7 kts 46°
2026-05-04 02:28 41.77977 -87.75653 628 ft 8 kts 42°
2026-05-04 02:29 41.78022 -87.75598 628 ft 10 kts 43°
2026-05-04 02:29 41.78081 -87.75522 628 ft 13 kts 43°
2026-05-04 02:29 41.78157 -87.75426 633 ft 16 kts 43°
2026-05-04 02:29 41.78245 -87.75314 628 ft 19 kts 43°
2026-05-04 02:30 41.78345 -87.75188 629 ft 21 kts 43°
2026-05-04 02:30 41.78451 -87.75052 628 ft 21 kts 43°
2026-05-04 02:30 41.78555 -87.74922 628 ft 20 kts 42°
2026-05-04 02:30 41.78624 -87.74805 628 ft 10 kts 94°
2026-05-04 02:31 41.78604 -87.74721 628 ft 8 kts 85°
2026-05-04 02:31 41.78613 -87.74688 628 ft 5 kts 67°
2026-05-04 02:31 41.78625 -87.74645 628 ft 1 kts 71°
2026-05-04 02:31 41.78625 -87.74643 628 ft 0 kts 71°